Total_Precipitation_Accumulation
0.77 0.71 0.59 0.62 0.57 0.60 0.66 0.70 0.73 0.72 0.75 0.74 0.74 0.74 0.76 0.73 0.68 0.66 0.80 0.97 1.33 1.49 1.29 1.05 0.85 0.75 0.73 0.73 0.75 0.92 1.08 1.16 1.20 1.26 1.28 1.33 1.26 1.10 1.00 0.90 0.95 1.02 0.96
0.71 0.74 0.69 0.70 0.71 0.69 0.69 0.69 0.67 0.77 0.80 0.78 0.76 0.76 0.77 0.69 0.68 0.76 0.90 0.96 0.98 1.16 1.42 1.39 1.22 1.01 0.88 0.79 0.78 0.86 0.97 1.03 1.06 1.14 1.19 1.17 1.10 0.98 0.90 0.84 1.01 0.91 0.80
0.68 0.73 0.76 0.77 0.79 0.79 0.79 0.80 0.80 0.86 0.81 0.81 0.81 0.76 0.71 0.66 0.67 0.76 0.80 0.86 0.71 0.65 0.93 1.28 1.41 1.28 1.17 1.05 0.91 0.84 0.85 0.91 0.95 1.10 1.15 1.09 0.95 0.89 0.83 0.85 0.94 0.85 0.74
0.70 0.79 0.81 0.85 0.91 0.83 0.80 0.87 0.92 0.96 0.91 0.91 0.92 0.80 0.66 0.68 0.68 0.73 0.83 0.84 0.79 0.62 0.64 0.73 0.90 1.03 1.25 1.36 1.16 0.99 0.91 0.83 0.86 1.04 1.12 0.94 0.80 0.76 0.80 0.86 0.85 0.80 0.73
0.88 0.95 0.99 1.02 1.05 1.07 0.99 0.88 0.90 0.96 1.03 1.03 0.95 0.88 0.74 0.73 0.77 0.78 0.95 0.96 0.86 0.74 0.73 0.58 0.54 0.60 0.81 1.11 1.16 1.12 1.05 0.88 0.82 0.93 0.97 0.81 0.71 0.67 0.68 0.72 0.69 0.66 0.65
1.16 1.26 1.24 1.19 1.26 1.34 1.35 1.14 1.18 1.12 1.06 1.11 1.03 0.96 0.91 0.85 0.85 0.91 0.96 1.01 1.02 0.87 0.84 0.69 0.57 0.41 0.49 0.73 0.93 1.07 1.16 1.05 0.89 0.90 0.93 0.74 0.66 0.65 0.61 0.58 0.58 0.60 0.57
1.49 1.65 1.61 1.60 1.60 1.57 1.53 1.48 1.60 1.53 1.26 1.17 1.32 1.27 1.14 0.98 0.93 0.92 0.93 1.02 1.12 1.10 1.11 0.95 0.81 0.59 0.43 0.45 0.53 0.76 1.04 1.19 1.11 1.02 1.04 0.92 0.71 0.63 0.62 0.60 0.57 0.60 0.60
1.72 1.76 1.95 2.05 2.02 2.11 2.08 1.90 2.03 2.02 1.67 1.42 1.59 1.85 1.59 1.39 1.01 0.91 0.94 0.98 1.09 1.21 1.27 1.12 0.92 0.76 0.66 0.58 0.41 0.48 0.66 0.99 1.20 1.10 1.11 1.10 0.83 0.65 0.59 0.58 0.57 0.58 0.60
1.87 1.89 2.00 2.17 2.19 2.25 2.32 2.39 2.33 2.40 2.18 1.80 1.70 1.94 1.77 1.64 1.44 1.02 0.95 1.06 1.18 1.28 1.36 1.37 1.21 0.96 0.89 0.84 0.62 0.44 0.41 0.52 0.93 1.08 1.09 1.08 0.90 0.71 0.61 0.57 0.55 0.56 0.58
2.06 2.13 2.15 2.25 2.27 2.29 2.38 2.48 2.44 2.54 2.59 2.21 1.95 1.73 1.55 1.52 1.60 1.36 1.13 1.10 1.27 1.33 1.37 1.42 1.41 1.23 1.06 1.04 0.88 0.65 0.45 0.37 0.59 0.99 1.16 1.11 0.95 0.84 0.71 0.64 0.57 0.54 0.58
2.17 2.20 2.27 2.42 2.40 2.37 2.35 2.56 2.62 2.69 2.61 2.52 2.36 2.18 2.02 1.76 1.40 1.46 1.46 1.31 1.25 1.19 1.26 1.39 1.53 1.45 1.29 1.19 1.21 0.91 0.63 0.43 0.43 0.81 1.12 1.25 1.14 1.08 0.96 0.85 0.74 0.66 0.61
2.20 2.10 2.02 2.16 2.22 2.25 2.24 2.41 2.58 2.71 2.69 2.71 2.61 2.31 2.22 2.08 1.70 1.63 1.50 1.40 1.42 1.25 1.18 1.25 1.32 1.31 1.33 1.28 1.22 1.18 0.86 0.59 0.44 0.59 0.90 1.05 1.16 1.25 1.22 1.13 1.03 0.90 0.78
2.02 2.05 1.95 1.95 1.98 1.93 1.97 2.08 2.14 2.22 2.36 2.51 2.41 2.19 2.14 1.97 1.92 1.91 1.80 1.58 1.41 1.21 1.20 1.18 1.18 1.16 1.15 1.18 1.26 1.37 1.00 0.69 0.48 0.43 0.58 0.73 0.83 1.01 1.21 1.31 1.26 1.19 1.11
1.72 1.80 1.80 1.75 1.79 1.83 1.84 1.91 1.92 1.92 1.95 2.02 2.02 2.09 2.13 1.99 1.91 1.83 1.82 1.96 1.73 1.49 1.35 1.21 1.19 1.19 1.14 1.14 1.31 1.38 1.05 0.82 0.59 0.47 0.43 0.48 0.57 0.74 0.95 1.17 1.29 1.36 1.34
1.28 1.34 1.44 1.51 1.61 1.66 1.72 1.85 1.91 1.90 1.86 1.83 1.93 1.98 1.92 1.90 1.88 1.77 1.73 1.81 1.88 1.74 1.61 1.43 1.29 1.21 1.24 1.21 1.31 1.13 1.05 0.94 0.74 0.64 0.54 0.47 0.47 0.53 0.61 0.82 0.99 1.03 1.09
0.94 1.00 1.11 1.28 1.50 1.62 1.66 1.73 1.78 1.86 1.89 1.85 1.92 2.01 2.01 2.02 2.04 1.96 1.82 1.78 1.72 1.74 1.66 1.44 1.25 1.15 1.29 1.19 1.30 1.13 1.08 1.18 0.95 0.77 0.67 0.60 0.53 0.51 0.50 0.58 0.69 0.70 0.69
0.78 0.89 0.95 1.09 1.24 1.43 1.61 1.76 1.77 1.76 1.80 1.78 1.72 1.80 1.90 2.01 2.12 2.14 2.10 1.97 1.83 1.79 1.70 1.53 1.33 1.19 1.32 1.37 1.31 1.25 1.16 1.07 1.00 0.90 0.77 0.75 0.68 0.56 0.53 0.56 0.64 0.63 0.60
0.62 0.71 0.84 1.05 1.16 1.25 1.30 1.38 1.46 1.49 1.51 1.56 1.55 1.52 1.60 1.72 1.86 2.00 2.07 2.01 2.01 1.91 1.81 1.76 1.58 1.34 1.23 1.30 1.34 1.41 1.33 1.14 1.05 1.09 0.99 0.87 0.81 0.70 0.61 0.55 0.60 0.59 0.56
0.61 0.66 0.80 0.95 1.01 1.06 1.10 1.12 1.22 1.30 1.31 1.29 1.34 1.31 1.33 1.43 1.57 1.69 1.77 1.85 1.97 2.00 1.99 1.89 1.79 1.59 1.36 1.37 1.40 1.39 1.40 1.47 1.26 1.16 1.15 1.09 1.01 0.92 0.85 0.73 0.66 0.62 0.58
0.62 0.69 0.84 0.94 0.95 0.91 1.00 1.03 1.08 1.12 1.09 1.04 1.07 1.08 1.13 1.17 1.24 1.36 1.50 1.71 1.90 2.01 2.07 2.05 1.95 1.72 1.54 1.52 1.50 1.47 1.52 1.57 1.53 1.33 1.24 1.17 1.20 1.13 1.00 0.89 0.79 0.72 0.67
0.64 0.71 0.76 0.87 0.92 0.90 0.93 0.99 0.98 0.93 0.92 0.91 0.87 0.78 0.80 0.86 0.87 0.95 1.01 1.29 1.54 1.76 1.89 1.96 1.92 1.78 1.57 1.47 1.37 1.40 1.52 1.66 1.73 1.67 1.58 1.32 1.25 1.19 1.13 1.04 0.93 0.82 0.75
0.53 0.58 0.64 0.80 0.91 0.82 0.93 0.92 0.85 0.78 0.75 0.79 0.76 0.69 0.67 0.71 0.62 0.59 0.63 0.85 1.14 1.34 1.53 1.71 1.76 1.63 1.50 1.42 1.47 1.47 1.46 1.49 1.52 1.45 1.45 1.46 1.38 1.28 1.19 1.11 1.09 1.02 0.93
0.47 0.52 0.56 0.73 0.83 0.91 0.85 0.70 0.74 0.74 0.74 0.77 0.79 0.80 0.73 0.69 0.76 0.67 0.62 0.69 0.77 0.89 1.04 1.30 1.53 1.52 1.61 1.53 1.44 1.38 1.38 1.40 1.40 1.45 1.46 1.46 1.37 1.26 1.15 1.11 1.22 1.13 1.06
0.44 0.49 0.55 0.59 0.67 0.80 0.74 0.59 0.63 0.63 0.74 0.81 0.84 0.93 0.94 0.87 0.84 0.92 0.87 0.88 0.85 0.78 0.84 0.76 0.98 1.36 1.49 1.54 1.49 1.51 1.58 1.51 1.39 1.39 1.40 1.43 1.38 1.28 1.13 1.04 1.12 1.03 0.94
0.48 0.50 0.55 0.58 0.64 0.68 0.64 0.57 0.60 0.67 0.79 0.82 0.79 0.90 0.94 0.88 0.92 0.97 1.10 1.16 1.09 0.94 1.04 1.05 0.97 1.08 1.22 1.27 1.37 1.46 1.50 1.41 1.36 1.29 1.18 1.16 1.12 1.16 1.20 1.11 1.07 1.09 0.97
0.47 0.48 0.47 0.47 0.52 0.55 0.60 0.50 0.61 0.73 0.78 0.80 0.81 0.87 1.01 0.93 0.90 0.88 0.97 1.11 1.09 0.97 0.85 0.88 0.86 0.76 0.70 0.81 1.01 1.17 1.42 1.51 1.43 1.32 1.15 1.08 1.09 1.06 1.09 1.03 0.94 0.97 0.94